Tracking 25612 objects as of 20-May-2022
HD Live streaming from Space Station
objects crossing your sky now

COSMOS 2251 DEB

Track COSMOS 2251 DEB now!
10-day predictions


NORAD ID: 35434
Int'l Code: 1993-036AKC
Perigee: 765.2 km
Apogee: 901.9 km
Inclination: 74.0 °
Period: 101.4 minutes
Semi major axis: 7204 km
RCS: 0.0109 m2 (small)
Launch date: June 16, 1993
Source: Commonwealth of Independent States (former USSR) (CIS)
Launch site: PLESETSK MISSILE AND SPACE COMPLEX (PKMTR)

Note: This is SATELLITE DEBRIS
aabbcc
Your satellite tracking list
Your tracking list is empty




NASA's NSSDC Master Catalog

Two Line Element Set (TLE):
1 35434U 93036AKC 22139.42020741  .00001564  00000-0  71827-3 0  9991
2 35434  74.0450  32.7974 0094868  56.4194 304.5962 14.19674502675889
Source of the keplerian elements: AFSPC